Regional Weather Roundup
Issued by NWS

Home | Current Version | Previous Version | Text Only | Print | Product List | Glossary Off
Versions: 1 2 3 4 5 6 7 8 9 10 11 12 13 14 15 16 17 18 19 20 21 22 23 24 25 26 27 28 29 30 31 32 33 34 35 36 37 38 39 40 41 42 43 44 45 46 47 48 49 50

000
ASUS43 KBIS 012302
RWRND

NORTH DAKOTA REGIONAL WEATHER ROUNDUP
NATIONAL WEATHER SERVICE BISMARCK ND
600 PM CDT SAT AUG 01 2015

NOTE: "FAIR" INDICATES FEW OR NO CLOUDS BELOW 12,000 FEET WITH NO
SIGNIFICANT WEATHER AND/OR OBSTRUCTIONS TO VISIBILITY.


NDZ001>003-009>011-017-020000-
NORTHWEST NORTH DAKOTA

CITY           SKY/WX    TMP DP  RH WIND       PRES   REMARKS
WILLISTON      SUNNY    100  33   9 W22G37    29.72F HX  94
MINOT          SUNNY     89  47  23 SW10      29.75F
MINOT AFB      SUNNY     90  52  27 S8        29.74F
$$

NDZ018>021-031>035-040>046-020000-
SOUTHWEST NORTH DAKOTA

CITY           SKY/WX    TMP DP  RH WIND       PRES   REMARKS
BISMARCK       SUNNY     91  50  24 MISG      29.80F
DICKINSON      SUNNY     92  41  17 W16       29.80F
GARRISON         N/A     84  58  40 S6        29.79F
HETTINGER ARPT SUNNY     93  34  12 SW6       29.87F
$$

NDZ004>008-012>016-024-026-027-054-020000-
NORTHEAST NORTH DAKOTA

CITY           SKY/WX    TMP DP  RH WIND       PRES   REMARKS
GRAND FORKS    MOSUNNY   85  61  44 S10       29.74F
GRND FRKS AFB  SUNNY     85  64  48 SW9       29.75F
DEVILS LAKE    SUNNY     88  52  29 SW7       29.76F
$$

NDZ022-023-025-028>030-036>039-047>053-020000-
SOUTHEAST NORTH DAKOTA

CITY           SKY/WX    TMP DP  RH WIND       PRES   REMARKS
FARGO          SUNNY     87  61  41 SE10      29.76F
JAMESTOWN      SUNNY     85  64  49 SE6       29.77F
$$



USA.gov is the U.S. government's official web portal to all federal, state and local government web resources and services.